Content
SEND FEEDBACK

Daily
Averages
Monthly
Summary
United States of America

WILMINGTON, NORTH CAROLINA


Home > North America > United States > North Carolina
Elevation: 21 meters     Latitude: 34 16N     Longitude: 077 54W

WEATHER
 
SELECT A DAY
Number of Records: 209,043;   Date Range: 1/1/95 - 9/3/14
 
SHARE

PRINT THIS DATA

[ ← Previous Day ]
WEATHER ALMANAC - 13 FEBRUARY, 2013
[ Next Day → ]
[ °F ]   °C
Weather ElementAverageHighLow
Temperature11.5 °C16.7 °C (4:53 pm)8.9 °C (2:53 am)
Dewpoint9.6 °C14 °C (4:08 pm)7.2 °C (1:53 am)
Humidity88.1 %96 % (9:53 am)77 % (7:53 pm)
Barometer1008.1 hPa1012.2 hPa (1:53 am)1004.4 hPa (3:53 pm)
Wind Speed13.2 km/h31.5 km/h (7:53 pm)
Wind Gust48.1 km/h (7:53 pm)
Weather ElementAverage
Visibility11.9 km
Wind DirectionSSE (164.7 °)

Weather ElementTotal
Precipitation32.51 mm
Heating Degree Days5.6 (Base 18.3)
Growing Degree Days2.8 (Base 10)
Averaged from 34 records on 13 February, 2013
WEATHER CONDITIONS BREAKOUT
WIND DIRECTION BREAKOUT
WEATHER BY HOUR - 13 FEBRUARY, 2013
[ °F ]   °C
Local TimeTemperatureDewpointHumidityBarometerVisibilityWind DirectionWind SpeedGust SpeedPrecipitationEventsConditions
1:53 AM9.4 °C7.2 °C86 %1012.2 hPa11.3 kmENE (70°)13 km/h2.29 mmRainRain
2:53 AM8.9 °C7.2 °C89 %1011.5 hPa8 kmENE (70°)9.3 km/h3.56 mmRainRain
3:22 AM9 °C8 °C93 %1011.2 hPa11.3 kmESE (110°)9.3 km/h0.51 mmRainLight Rain
3:53 AM8.9 °C7.8 °C93 %1010.5 hPa16.1 kmEast (80°)5.6 km/h1.02 mmRainLight Rain
4:27 AM9 °C8 °C93 %1009.8 hPa2.9 kmENE (70°)7.4 km/h3.05 mmRainHeavy Rain
4:36 AM9 °C8 °C93 %1009.5 hPa4.8 kmEast (100°)13 km/h6.1 mmRainRain
4:48 AM9 °C8 °C93 %1008.5 hPa6.4 kmESE (110°)14.8 km/h7.11 mmRainRain
4:53 AM9.4 °C8.3 °C93 %1008.8 hPa8 kmESE (120°)18.5 km/h7.37 mmRainLight Rain
5:01 AM9 °C8 °C93 %1009.1 hPa8 kmEast (90°)13 km/h31.5 km/h0 mmRainLight Rain
5:09 AM10 °C8 °C87 %1009.1 hPa11.3 kmENE (60°)13 km/h0 mmRainLight Rain
5:53 AM10 °C8.9 °C93 %1009.5 hPa16.1 kmENE (60°)9.3 km/h0 mmOvercast
6:53 AM10 °C8.9 °C93 %1009.5 hPa16.1 kmENE (60°)9.3 km/hOvercast
7:01 AM10 °C9 °C94 %1008.8 hPa14.5 kmENE (60°)11.1 km/h0 mmRainLight Rain
7:32 AM11 °C9 °C88 %1008.5 hPa6.4 kmEast (80°)7.4 km/h0.51 mmRainLight Rain
7:53 AM10.6 °C9.4 °C92 %1008.5 hPa14.5 kmENE (60°)11.1 km/h0.76 mmOvercast
8:27 AM11 °C9 °C88 %1007.8 hPa3.2 kmNE (50°)9.3 km/hOvercast
8:53 AM10.6 °C9.4 °C92 %1008.5 hPa4.8 kmNorth (360°)11.1 km/hOvercast
9:04 AM11 °C9 °C88 %1008.1 hPa3.2 kmNorth (10°)11.1 km/hOvercast
9:53 AM10 °C9.4 °C96 %1008.5 hPa4.8 kmNorth (360°)9.3 km/hOvercast
10:53 AM10 °C8.9 °C93 %1008.1 hPa16.1 kmNorth (350°)5.6 km/hOvercast
11:53 AM11.7 °C10 °C89 %1007.5 hPa16.1 kmCalmOvercast
12:53 PM12.8 °C11.1 °C89 %1006.1 hPa11.3 kmWest (260°)5.6 km/hOvercast
1:53 PM14.4 °C12.8 °C90 %1005.8 hPa12.9 kmWNW (290°)9.3 km/hOvercast
2:53 PM15 °C13.3 °C90 %1005.1 hPa14.5 kmSW (230°)11.1 km/hOvercast
3:53 PM16.1 °C13.9 °C87 %1004.4 hPa16.1 kmSW (220°)18.5 km/hMostly Cloudy
4:08 PM16 °C14 °C88 %1004.7 hPa16.1 kmSW (220°)16.7 km/hMostly Cloudy
4:53 PM16.7 °C13.3 °C80 %1004.7 hPa16.1 kmWSW (240°)20.4 km/hPartly Cloudy
5:53 PM16.1 °C12.8 °C81 %1006.1 hPa16.1 kmWSW (240°)20.4 km/hClear
6:53 PM15 °C11.1 °C78 %1006.4 hPa16.1 kmWSW (240°)22.2 km/h0 mmRainLight Rain
7:53 PM13.9 °C10 °C77 %1006.8 hPa16.1 kmWSW (250°)31.5 km/h48.1 km/h0 mmRainLight Rain
8:53 PM12.8 °C8.9 °C77 %1008.5 hPa16.1 kmWest (260°)27.8 km/h40.7 km/h0 mmRainLight Rain
9:53 PM12.2 °C8.3 °C77 %1008.1 hPa16.1 kmWest (280°)18.5 km/h0.25 mmMostly Cloudy
10:53 PM11.7 °C8.3 °C80 %1009.1 hPa16.1 kmWest (270°)20.4 km/hClear
11:53 PM11.1 °C8.3 °C83 %1010.2 hPa16.1 kmWest (270°)14.8 km/hOvercast
Hourly data recorded from KILM, located 0 kilometers away from Wilmington, North Carolina







STORIES FROM OUR PARTNERS